• In Denmark
  • List of Countries
  • For 7 days
  • Water Temperature
  • Satellite Maps
  • Weather Map
  • Weather Widgets
  • user-avatar
    Login

    Hourly Weather Jewłach

    Today, 23 February, Friday

    Time Temperature Precipitation Wind Pressure Humidity
    00:00 +9°C° 0 mm 1 mps 760 mmHg 82%
    01:00 +9°C° 0 mm 1 mps 760 mmHg 84%
    02:00 +8°C° 0 mm 1 mps 760 mmHg 86%
    03:00 +8°C° 0 mm 1 mps 760 mmHg 88%
    04:00 +8°C° 0 mm 1 mps 760 mmHg 88%
    05:00 +8°C° 0 mm 1 mps 760 mmHg 89%
    06:00 +7°C° 0 mm 1 mps 761 mmHg 89%
    07:00 +8°C° 0 mm 1 mps 760 mmHg 86%
    08:00 +9°C° 0 mm 1 mps 760 mmHg 83%
    09:00 +10°C° 0 mm 1 mps 760 mmHg 80%
    10:00 +11°C° 0 mm 1 mps 760 mmHg 78%
    11:00 +10°C° 0 mm 2 mps 760 mmHg 75%
    12:00 +12°C° 0 mm 2 mps 759 mmHg 72%
    13:00 +12°C° 0 mm 2 mps 759 mmHg 69%
    14:00 +13°C° 0 mm 2 mps 759 mmHg 67%
    15:00 +13°C° 0 mm 2 mps 758 mmHg 64%
    16:00 +13°C° 0 mm 2 mps 758 mmHg 68%
    17:00 +12°C° 0 mm 2 mps 759 mmHg 72%
    18:00 +10°C° 0 mm 2 mps 759 mmHg 76%
    19:00 +10°C° 0 mm 2 mps 759 mmHg 79%
    20:00 +9°C° 0 mm 2 mps 759 mmHg 81%
    21:00 +10°C° 0 mm 1 mps 759 mmHg 84%
    22:00 +9°C° 0 mm 1 mps 759 mmHg 85%
    23:00 +9°C° 0 mm 1 mps 759 mmHg 85%

    Tomorrow, 24 February, Saturday

    Time Temperature Precipitation Wind Pressure Humidity
    00:00 +9°C° 0 mm 1 mps 758 mmHg 86%
    01:00 +9°C° 0 mm 1 mps 758 mmHg 86%
    02:00 +8°C° 0 mm 1 mps 758 mmHg 86%
    03:00 +8°C° 0 mm 1 mps 758 mmHg 86%
    04:00 +8°C° 0 mm 1 mps 758 mmHg 85%
    05:00 +8°C° 0 mm 1 mps 757 mmHg 85%
    06:00 +7°C° 0 mm 2 mps 757 mmHg 85%
    07:00 +8°C° 0 mm 2 mps 757 mmHg 78%
    08:00 +9°C° 0 mm 2 mps 757 mmHg 72%
    09:00 +10°C° 0 mm 2 mps 757 mmHg 65%
    10:00 +13°C° 0 mm 2 mps 757 mmHg 59%
    11:00 +13°C° 0 mm 3 mps 757 mmHg 52%
    12:00 +16°C° 0 mm 3 mps 756 mmHg 45%
    13:00 +16°C° 0 mm 2 mps 756 mmHg 43%
    14:00 +17°C° 0 mm 2 mps 756 mmHg 41%
    15:00 +17°C° 0 mm 2 mps 755 mmHg 39%
    16:00 +16°C° 0 mm 2 mps 756 mmHg 43%
    17:00 +15°C° 0 mm 1 mps 756 mmHg 47%
    18:00 +14°C° 0 mm 1 mps 756 mmHg 51%
    19:00 +14°C° 0 mm 1 mps 757 mmHg 53%
    20:00 +13°C° 0 mm 2 mps 757 mmHg 55%
    21:00 +12°C° 0 mm 2 mps 757 mmHg 57%
    22:00 +12°C° 0 mm 2 mps 757 mmHg 58%
    23:00 +10°C° 0 mm 2 mps 757 mmHg 60%

    Day after tomorrow, 25 February, Sunday

    Time Temperature Precipitation Wind Pressure Humidity
    00:00 +10°C° 0 mm 2 mps 757 mmHg 61%
    01:00 +10°C° 0 mm 1 mps 757 mmHg 62%
    02:00 +10°C° 0 mm 1 mps 757 mmHg 63%
    03:00 +9°C° 0 mm 1 mps 757 mmHg 64%
    04:00 +9°C° 0 mm 1 mps 757 mmHg 65%
    05:00 +9°C° 0 mm 1 mps 757 mmHg 65%
    06:00 +9°C° 0 mm 1 mps 757 mmHg 66%
    07:00 +10°C° 0 mm 1 mps 757 mmHg 61%
    08:00 +11°C° 0 mm 1 mps 756 mmHg 56%
    09:00 +12°C° 0 mm 1 mps 756 mmHg 51%
    10:00 +13°C° 0 mm 1 mps 756 mmHg 48%
    11:00 +14°C° 0 mm 1 mps 755 mmHg 45%
    12:00 +15°C° 0 mm 1 mps 755 mmHg 42%
    13:00 +15°C° 0 mm 1 mps 754 mmHg 40%
    14:00 +16°C° 0 mm 1 mps 754 mmHg 39%
    15:00 +16°C° 0 mm 1 mps 753 mmHg 37%
    16:00 +15°C° 0 mm 1 mps 753 mmHg 41%
    17:00 +15°C° 0 mm 1 mps 753 mmHg 45%
    18:00 +14°C° 0 mm 1 mps 754 mmHg 49%
    19:00 +13°C° 0 mm 1 mps 754 mmHg 52%
    20:00 +13°C° 0 mm 1 mps 754 mmHg 54%
    21:00 +12°C° 0 mm 1 mps 754 mmHg 57%
    22:00 +12°C° 0 mm 1 mps 754 mmHg 56%
    23:00 +11°C° 0 mm 1 mps 754 mmHg 56%

    26 February, Monday

    Time Temperature Precipitation Wind Pressure Humidity
    00:00 +11°C° 0 mm 1 mps 753 mmHg 56%
    01:00 +11°C° 0 mm 1 mps 753 mmHg 54%
    02:00 +10°C° 0 mm 1 mps 753 mmHg 53%
    03:00 +9°C° 0 mm 2 mps 753 mmHg 51%
    04:00 +9°C° 0 mm 2 mps 753 mmHg 49%
    05:00 +9°C° 0 mm 2 mps 753 mmHg 46%
    06:00 +9°C° 0 mm 3 mps 753 mmHg 44%
    07:00 +10°C° 0 mm 3 mps 753 mmHg 40%
    08:00 +11°C° 0 mm 4 mps 753 mmHg 37%
    09:00 +12°C° 0 mm 4 mps 753 mmHg 33%
    10:00 +14°C° 0 mm 5 mps 753 mmHg 32%
    11:00 +15°C° 0 mm 6 mps 753 mmHg 31%
    12:00 +17°C° 0 mm 7 mps 753 mmHg 30%
    13:00 +17°C° 0 mm 7 mps 752 mmHg 31%
    14:00 +17°C° 0 mm 7 mps 752 mmHg 31%
    15:00 +17°C° 0 mm 7 mps 752 mmHg 31%
    16:00 +16°C° 0 mm 6 mps 753 mmHg 34%
    17:00 +15°C° 0 mm 5 mps 754 mmHg 37%
    18:00 +14°C° 0 mm 5 mps 754 mmHg 40%
    19:00 +13°C° 0 mm 4 mps 755 mmHg 41%
    20:00 +13°C° 0 mm 3 mps 756 mmHg 43%
    21:00 +12°C° 0 mm 3 mps 756 mmHg 44%
    22:00 +12°C° 0 mm 3 mps 757 mmHg 46%
    23:00 +12°C° 0 mm 2 mps 757 mmHg 49%

    27 February, Tuesday

    Time Temperature Precipitation Wind Pressure Humidity
    00:00 +12°C° 0 mm 2 mps 758 mmHg 51%
    01:00 +10°C° 0 mm 2 mps 758 mmHg 56%
    02:00 +10°C° 0 mm 2 mps 758 mmHg 60%
    03:00 +9°C° 0 mm 2 mps 758 mmHg 65%
    04:00 +9°C° 0 mm 2 mps 759 mmHg 68%
    05:00 +9°C° 0 mm 2 mps 759 mmHg 72%
    06:00 +8°C° 0 mm 2 mps 760 mmHg 76%
    07:00 +9°C° 0 mm 3 mps 760 mmHg 75%
    08:00 +9°C° 0 mm 3 mps 760 mmHg 75%
    09:00 +8°C° 0 mm 4 mps 761 mmHg 75%
    10:00 +8°C° 0.1 mm 4 mps 761 mmHg 75%
    11:00 +10°C° 0.1 mm 4 mps 760 mmHg 74%
    12:00 +10°C° 0.1 mm 4 mps 760 mmHg 74%
    13:00 +10°C° 0 mm 4 mps 760 mmHg 73%
    14:00 +10°C° 0 mm 4 mps 760 mmHg 73%
    15:00 +10°C° 0 mm 3 mps 760 mmHg 73%
    16:00 +10°C° 0 mm 3 mps 760 mmHg 75%
    17:00 +9°C° 0 mm 2 mps 761 mmHg 76%
    18:00 +9°C° 0 mm 2 mps 761 mmHg 78%
    19:00 +8°C° 0 mm 2 mps 761 mmHg 80%
    20:00 +9°C° 0 mm 1 mps 761 mmHg 83%
    21:00 +9°C° 0 mm 1 mps 762 mmHg 85%
    22:00 +8°C° 0 mm 1 mps 762 mmHg 86%
    23:00 +8°C° 0 mm 1 mps 762 mmHg 87%

    28 February, Wednesday

    Time Temperature Precipitation Wind Pressure Humidity
    00:00 +7°C° 0 mm 0 mps 762 mmHg 88%
    01:00 +8°C° 0 mm 1 mps 761 mmHg 88%
    02:00 +7°C° 0 mm 1 mps 761 mmHg 88%
    03:00 +7°C° 0 mm 1 mps 761 mmHg 88%
    04:00 +7°C° 0 mm 1 mps 761 mmHg 88%
    05:00 +7°C° 0 mm 1 mps 762 mmHg 88%
    06:00 +7°C° 0 mm 1 mps 762 mmHg 88%
    07:00 +8°C° 0 mm 1 mps 762 mmHg 81%
    08:00 +8°C° 0 mm 2 mps 762 mmHg 75%
    09:00 +9°C° 0 mm 2 mps 762 mmHg 69%
    10:00 +12°C° 0 mm 1 mps 762 mmHg 63%
    11:00 +13°C° 0 mm 1 mps 762 mmHg 58%
    12:00 +15°C° 0 mm 1 mps 762 mmHg 52%
    13:00 +15°C° 0 mm 2 mps 762 mmHg 50%
    14:00 +16°C° 0 mm 2 mps 762 mmHg 48%
    15:00 +17°C° 0 mm 2 mps 761 mmHg 46%
    16:00 +16°C° 0 mm 2 mps 762 mmHg 50%
    17:00 +14°C° 0 mm 3 mps 762 mmHg 55%
    18:00 +13°C° 0 mm 3 mps 763 mmHg 60%
    19:00 +12°C° 0 mm 4 mps 763 mmHg 64%
    20:00 +11°C° 0 mm 4 mps 764 mmHg 67%
    21:00 +9°C° 0 mm 5 mps 764 mmHg 71%
    22:00 +8°C° 0 mm 4 mps 764 mmHg 75%
    23:00 +8°C° 0 mm 4 mps 764 mmHg 78%
    Show more